Regional Weather Roundup
Issued by NWS

Home | Current Version | Previous Version | Graphics & Text | Print | Product List | Glossary On
Versions: 1 2 3 4 5 6 7 8 9 10 11 12 13 14 15 16 17 18 19 20 21 22 23 24 25 26 27 28 29 30 31 32 33 34 35 36 37 38 39 40 41 42 43 44 45 46 47 48 49 50
000
ASUS43 KFSD 210910
RWRSD

WEATHER ROUNDUP FOR SOUTH DAKOTA
NATIONAL WEATHER SERVICE SIOUX FALLS SD
300 AM CST SAT JAN 21 2017

NOTE: "FAIR" INDICATES FEW OR NO CLOUDS BELOW 12,000 FEET WITH NO
SIGNIFICANT WEATHER AND/OR OBSTRUCTIONS TO VISIBILITY.


SDZ001>005-009-010-012>017-211000-
NORTHWEST AND NORTH CENTRAL SOUTH DAKOTA

CITY           SKY/WX    TMP DP  RH WIND       PRES   REMARKS
BUFFALO          N/A     31  28  89 W12       29.26R WCI  22
FAITH            N/A     24  24 100 W7        29.30S WCI  16
MOBRIDGE       CLOUDY    24  21  88 CALM      29.29R FOG
$$

SDZ012>016-024>037-041>051-057-063-072>074-211000-
SOUTHWEST AND SOUTH CENTRAL SOUTH DAKOTA

CITY           SKY/WX    TMP DP  RH WIND       PRES   REMARKS
RAPID CTY ARPT CLOUDY    34  30  85 N14       29.34S WCI  25
PIERRE         CLOUDY    26  25  96 NW7       29.31S WCI  18
CUSTER         CLOUDY    28  25  88 W3        29.32R
ELLSWORTH AFB  CLOUDY    34  32  93 N12       29.34  WCI  25
PHILIP         CLOUDY    30  28  92 W12       29.33S WCI  20
PINE RIDGE     MOCLDY    34  33  96 SW8       29.37R WCI  27
WINNER         CLOUDY    27  24  89 CALM      29.35R
$$

SDZ004>011-016>023-039-040-211000-
NORTHEAST SOUTH DAKOTA

CITY           SKY/WX    TMP DP  RH WIND       PRES   REMARKS
ABERDEEN       CLOUDY    30  27  88 NE6       29.33F WCI  24
WATERTOWN      FOG       34  34 100 SE9       29.34S VSB 1/2 WCI  27
BROOKINGS      FOG       35  34  96 SE12      29.35S VSB 1/2 WCI  27
SISSETON         N/A     34  34 100 S10       29.38S WCI  26
$$

SDZ017-020-022-023-036>040-048>070-211000-
SOUTHEAST SOUTH DAKOTA

CITY           SKY/WX    TMP DP  RH WIND       PRES   REMARKS
SIOUX FALLS    CLOUDY    36  36 100 SE7       29.36S FOG
HURON          FOG       36  36 100 W5        29.33S VSB 1/4
CHAMBERLAIN    CLOUDY    25  25  99 W8        29.35S WCI  16
MITCHELL       CLOUDY    38  38 100 S7        29.34S FOG
YANKTON        CLOUDY    37  36  93 SE5       29.34F
$$

ABBREVIATIONS USED IN REMARKS
   TC - TEMPERATURE IN CELSIUS
  WCI - WIND CHILL INDEX
   HX - HEAT INDEX
  VSB - VISIBILITY





USA.gov is the U.S. government's official web portal to all federal, state and local government web resources and services.